Weather History for Warrenton, VA

Change the Weather History Date:

Thursday, December 6, 2012

  Actual Average (KHEF) Record (KHEF)
Temperature  
Mean Temperature 35 °F -  
Max Temperature 46 °F 47 °F 78 °F (1998)
Min Temperature 24 °F 28 °F 6 °F (2002)
Degree Days  
Heating Degree Days 30    
Moisture  
Dew Point 29 °F    
Average Humidity 78    
Maximum Humidity 100    
Minimum Humidity 53    
Precipitation  
Precipitation 0.00 in - - ()
Sea Level Pressure  
Sea Level Pressure 30.30 in    
Wind  
Wind Speed 3 mph (ENE)    
Max Wind Speed 8 mph    
Max Gust Speed -    
Visibility 10 miles    
Events      
Averages and records for this station are not official NWS values.
T = Trace of Precipitation, MM = Missing Value Source: NWS Daily Summary

Daily Weather History Graph

Daily Weather History Graph

Search for Another Location

Airport:

Trip Planner

Search our weather history database for the weather conditions in past years. The results will help you decide how hot, cold, wet, or windy it might be!

Date:

Astronomy

Dec. 06, 2012 Rise Set
Actual Time 7:14 AM EST 4:49 PM EST
Civil Twilight 6:45 AM EST 5:19 PM EST
Nautical Twilight 6:12 AM EST 5:52 PM EST
Astronomical Twilight 5:39 AM EST 6:24 PM EST
Moon No Moon Rise 12:10 PM EST (12/6)
Length of Visible Light 10h 33m
Length of Day
9h 34m
Waning Gibbous, 49% of the Moon is Illuminated
Dec 6
Waning Gibbous
Dec 13
New
Dec 20
First Quarter
Dec 28
Full
Jan 4
Last Quarter

Hourly Weather History & Observations

Time (EST) Temp. Windchill Dew Point Humidity Pressure Visibility Wind Dir Wind Speed Gust Speed Precip Events Conditions
12:15 AM 38.5 °F 32.7 °F 29.8 °F 71% 30.30 in 10.0 mi North 8.1 mph - N/A   Clear
12:35 AM 36.7 °F 32.9 °F 29.5 °F 75% 30.30 in 10.0 mi North 4.6 mph - N/A   Clear
12:55 AM 35.8 °F - 28.9 °F 76% 30.30 in 10.0 mi Calm Calm - N/A   Clear
1:15 AM 32.5 °F - 28.6 °F 85% 30.30 in 10.0 mi Calm Calm - N/A   Clear
1:35 AM 32.7 °F - 27.9 °F 82% 30.30 in 10.0 mi Calm Calm - N/A   Clear
1:55 AM 32.0 °F 27.5 °F 28.0 °F 85% 30.31 in 10.0 mi North 4.6 mph - N/A   Clear
2:15 AM 34.0 °F - 28.0 °F 79% 30.32 in 10.0 mi Calm Calm - N/A   Clear
2:35 AM 31.3 °F 26.6 °F 26.8 °F 83% 30.31 in 10.0 mi North 4.6 mph - N/A   Clear
2:55 AM 32.9 °F 26.7 °F 27.9 °F 82% 30.31 in 10.0 mi North 6.9 mph - N/A   Clear
3:15 AM 32.9 °F 29.8 °F 27.7 °F 81% 30.32 in 10.0 mi North 3.5 mph - N/A   Clear
3:35 AM 31.1 °F - 26.4 °F 83% 30.32 in 10.0 mi Calm Calm - N/A   Clear
3:55 AM 29.8 °F - 27.3 °F 90% 30.32 in 10.0 mi Calm Calm - N/A   Clear
4:15 AM 30.9 °F - 26.1 °F 82% 30.31 in 10.0 mi Calm Calm - N/A   Clear
4:35 AM 27.5 °F - 26.6 °F 96% 30.32 in 10.0 mi Calm Calm - N/A   Clear
4:55 AM 28.2 °F - 26.1 °F 92% 30.32 in 10.0 mi Calm Calm - N/A   Clear
5:15 AM 27.7 °F - 24.6 °F 88% 30.33 in 10.0 mi Calm Calm - N/A   Clear
5:35 AM 29.8 °F 24.9 °F 27.0 °F 89% 30.32 in 10.0 mi NNE 4.6 mph - N/A   Clear
5:55 AM 31.1 °F - 27.3 °F 86% 30.33 in 10.0 mi Calm Calm - N/A   Clear
6:15 AM 27.1 °F - 26.1 °F 96% 30.34 in 10.0 mi Calm Calm - N/A   Clear
6:35 AM 25.0 °F - 25.0 °F 100% 30.34 in 10.0 mi Calm Calm - N/A   Clear
6:55 AM 28.2 °F 22.0 °F 26.8 °F 94% 30.33 in 10.0 mi NE 5.8 mph - N/A   Clear
7:15 AM 24.1 °F - 23.5 °F 98% 30.35 in 10.0 mi Calm Calm - N/A   Clear
7:35 AM 25.2 °F - 25.2 °F 100% 30.36 in 10.0 mi Calm Calm - N/A   Clear
7:55 AM 27.5 °F - 26.4 °F 96% 30.38 in 10.0 mi Calm Calm - N/A   Clear
8:15 AM 30.2 °F - 28.9 °F 95% 30.38 in 10.0 mi Calm Calm - N/A   Clear
8:35 AM 33.1 °F - 31.1 °F 92% 30.38 in 10.0 mi Calm Calm - N/A   Clear
8:55 AM 35.6 °F - 29.8 °F 80% 30.38 in 10.0 mi Calm Calm - N/A   Clear
9:15 AM 36.5 °F 31.8 °F 29.8 °F 77% 30.38 in 10.0 mi NE 5.8 mph - N/A   Clear
9:35 AM 37.6 °F 34.0 °F 30.2 °F 75% 30.38 in 10.0 mi NE 4.6 mph - N/A   Clear
9:55 AM 38.3 °F 33.2 °F 29.8 °F 72% 30.39 in 10.0 mi NNE 6.9 mph - N/A   Clear
10:15 AM 39.2 °F 35.9 °F 30.2 °F 70% 30.39 in 10.0 mi NNE 4.6 mph - N/A   Clear
10:35 AM 39.7 °F 37.6 °F 29.8 °F 68% 30.38 in 10.0 mi East 3.5 mph - N/A   Clear
10:55 AM 40.3 °F 35.5 °F 29.8 °F 66% 30.38 in 10.0 mi North 6.9 mph - N/A   Clear
11:15 AM 40.8 °F - 29.3 °F 64% 30.37 in 10.0 mi Calm Calm - N/A   Clear
11:35 AM 41.4 °F 39.4 °F 29.3 °F 62% 30.35 in 10.0 mi North 3.5 mph - N/A   Clear
11:55 AM 42.4 °F 38.8 °F 30.4 °F 62% 30.34 in 10.0 mi ENE 5.8 mph - N/A   Clear
12:15 PM 42.8 °F 40.1 °F 30.4 °F 62% 30.33 in 10.0 mi North 4.6 mph - N/A   Clear
12:55 PM 44.2 °F 42.7 °F 30.2 °F 58% 30.30 in 10.0 mi SE 3.5 mph - N/A   Clear
1:15 PM 45.0 °F 43.5 °F 30.6 °F 57% 30.29 in 10.0 mi SE 3.5 mph - N/A   Clear
1:35 PM 45.0 °F 43.5 °F 30.6 °F 57% 30.29 in 10.0 mi SSE 3.5 mph - N/A   Clear
1:55 PM 44.4 °F 42.9 °F 30.6 °F 58% 30.28 in 10.0 mi East 3.5 mph - N/A   Clear
2:15 PM 45.1 °F 42.8 °F 31.1 °F 58% 30.27 in 10.0 mi SW 4.6 mph - N/A   Clear
2:35 PM 45.5 °F - 29.8 °F 54% 30.27 in 10.0 mi Calm Calm - N/A   Clear
2:55 PM 46.2 °F 45.0 °F 30.0 °F 53% 30.27 in 10.0 mi WSW 3.5 mph - N/A   Clear
3:15 PM 44.6 °F - 30.0 °F 57% 30.27 in 10.0 mi Calm Calm - N/A   Clear
3:35 PM 45.5 °F 44.2 °F 30.4 °F 56% 30.27 in 10.0 mi WSW 3.5 mph - N/A   Clear
3:55 PM 45.5 °F - 30.6 °F 56% 30.27 in 10.0 mi Calm Calm - N/A   Clear
4:15 PM 44.4 °F - 30.9 °F 59% 30.26 in 10.0 mi Calm Calm - N/A   Clear
4:35 PM 42.3 °F - 30.4 °F 63% 30.26 in 10.0 mi Calm Calm - N/A   Clear
4:55 PM 36.9 °F - 30.2 °F 77% 30.26 in 10.0 mi Calm Calm - N/A   Clear
5:15 PM 37.2 °F - 30.6 °F 77% 30.26 in 10.0 mi Calm Calm - N/A   Clear
5:35 PM 35.2 °F - 30.0 °F 81% 30.26 in 10.0 mi Calm Calm - N/A   Clear
5:55 PM 32.7 °F - 28.8 °F 85% 30.26 in 10.0 mi Calm Calm - N/A   Clear
6:15 PM 33.8 °F - 29.3 °F 84% 30.26 in 10.0 mi Calm Calm - N/A   Clear
6:35 PM 31.8 °F - 29.3 °F 90% 30.26 in 10.0 mi Calm Calm - N/A   Clear
6:55 PM 30.9 °F 27.5 °F 28.4 °F 90% 30.25 in 10.0 mi SE 3.5 mph - N/A   Clear
7:15 PM 32.2 °F 28.9 °F 29.5 °F 90% 30.26 in 10.0 mi SE 3.5 mph - N/A   Clear
7:35 PM 33.1 °F 28.7 °F 28.8 °F 84% 30.26 in 10.0 mi SE 4.6 mph - N/A   Clear
7:55 PM 33.6 °F 29.4 °F 29.1 °F 84% 30.25 in 10.0 mi SE 4.6 mph - N/A   Clear
8:15 PM 34.3 °F 30.2 °F 29.3 °F 82% 30.25 in 10.0 mi SE 4.6 mph - N/A   Clear
8:35 PM 34.3 °F - 30.0 °F 84% 30.25 in 10.0 mi Calm Calm - N/A   Clear
8:55 PM 31.5 °F - 29.7 °F 93% 30.25 in 10.0 mi Calm Calm - N/A   Clear
9:35 PM 35.1 °F 30.1 °F 31.8 °F 88% 30.24 in 10.0 mi SE 5.8 mph - N/A   Scattered Clouds
9:55 PM 36.5 °F - 31.8 °F 83% 30.25 in 10.0 mi Calm Calm - N/A   Scattered Clouds
10:15 PM 36.7 °F - 32.0 °F 83% 30.25 in 10.0 mi Calm Calm - N/A   Scattered Clouds
10:35 PM 36.7 °F - 32.9 °F 86% 30.24 in 10.0 mi Calm Calm - N/A   Overcast
10:55 PM 38.1 °F - 32.2 °F 79% 30.24 in 10.0 mi Calm Calm - N/A   Overcast
11:15 PM 38.1 °F - 32.9 °F 81% 30.23 in 10.0 mi Calm Calm - N/A   Overcast
11:55 PM 39.0 °F - 33.6 °F 81% 30.23 in 10.0 mi Calm Calm - N/A   Overcast